Regional Weather Roundup
Issued by NWS Albany, NY

Home | Current Version | Previous Version | Graphics & Text | Print | Product List | Glossary On
Versions: 1 2 3 4 5 6 7 8 9 10 11 12 13 14 15 16 17 18 19 20 21 22 23 24 25 26 27
000
ASUS41 KALY 031810
RWRALY

NEW YORK STATE HOURLY WEATHER ROUNDUP
NATIONAL WEATHER SERVICE ALBANY NY
100 PM EST SAT DEC 03 2016

NOTE: "FAIR" INDICATES FEW OR NO CLOUDS BELOW 12,000 FEET WITH NO
SIGNIFICANT WEATHER AND/OR NO OBSTRUCTIONS TO VISIBILITY.

NYZ032-033-038>043-046>054-057>066-NYZ062>081-082-084-031900-
EAST


CITY           SKY/WX    TMP DP  RH WIND       PRES   REMARKS
ALBANY         MOSUNNY   42  23  46 NW21G33   30.01R
GLENS FALLS    CLOUDY    41  23  48 N13G23    29.99R
POUGHKEEPSIE   CLOUDY    43  25  49 NW9       30.00S
NEWBURGH       PTSUNNY   43  28  56 NW18G31   30.02R
MONTGOMERY     PTSUNNY   45  27  49 NW14G29   30.01S
WHITE PLAINS   PTSUNNY   44  25  47 W15G25    29.99S
ISLIP          PTSUNNY   46  26  45 NW18G29   29.99R
NEW YORK CITY  PTSUNNY   49  28  44 NW23G30   30.03R
CENTRAL PARK   PTSUNNY   47  25  42 NW14G23   30.05S
$$

NYZ005>009-017-018-044>046-055-056-031900-
CENTRAL


CITY           SKY/WX    TMP DP  RH WIND       PRES   REMARKS
FULTON         CLOUDY    38  28  67 NW14G20   30.09S WCI  30
SYRACUSE       FLURRIES  36  32  85 NW10      30.09S WCI  28
ROME           CLOUDY    35  32  88 W12       30.08S WCI  27
ELMIRA         CLOUDY    39  28  64 NW12      30.10F WCI  32
BINGHAMTON     SNOW      32  31  96 NW10      30.04F VSB 1/2 WCI  24
MONTICELLO     CLOUDY    37  27  65 NW20G32   30.02S WCI  27
$$

NYZ026>034-041>043-087-031900-
NORTH


CITY           SKY/WX    TMP DP  RH WIND       PRES   REMARKS
WATERTOWN      CLOUDY    37  26  64 W10       30.08S WCI  30
FORT DRUM      NOT AVBL
OGDENSBURG     PTSUNNY   37  26  63 NW13G18   30.05S WCI  29
MASSENA        CLOUDY    36  24  62 NW17G29   30.04S WCI  26
SARANAC LAKE   LGT SNOW  28  24  85 VRB7      29.93F FOG     WCI  21
PLATTSBURGH    CLOUDY    37  27  67 NW10G21   29.98R WCI  30
$$

NYZ001>004-010>016-019>021-085-031900-
WEST


CITY           SKY/WX    TMP DP  RH WIND       PRES   REMARKS
NIAGARA FALLS  PTSUNNY   42  29  59 W16G22    30.16F
BUFFALO        PTSUNNY   40  29  64 W14       30.16F WCI  32
DUNKIRK        CLOUDY    41  35  79 W14G22    30.17F
JAMESTOWN      CLOUDY    36  30  80 W13       30.13F WCI  27
WELLSVILLE     CLOUDY    35  30  82 NW12      30.10F WCI  27
ROCHESTER      CLOUDY    40  32  73 NW10      30.13S WCI  33
PENN YAN       CLOUDY    38  28  67 W13G20    30.11F WCI  30
$$

             KEY
       WCI = WIND CHILL INDEX
       VSB = VISIBILITY
       HX  = HEAT INDEX
$$




USA.gov is the U.S. government's official web portal to all federal, state and local government web resources and services.